Voltar ao catálogo

USA 342

AtivoMilitarGEO
NORAD 55263·PAYLOAD·🇺🇸 United States

Lançado Jan 15, 2023 de Cape Canaveral Space Force Station

Loading…

TLE

AtualizadoSource: Space-Track

Época: Sep 14, 2026, 12:12 UTC

1 55263U 23008A   26257.50848862  .00000000  00000-0  00000+0 0  9996
2 55263   0.0102 178.0234 0000195  64.9066 317.4306  1.00271306 13410

Acompanhe USA 342 em tempo real com AllMySat

Download on the App Store